Weather History for Swainsboro, GA

Change the Weather History Date:

Friday, October 26, 2012

  Actual Average Record
Temperature  
Mean Temperature 71 °F -  
Max Temperature 80 °F 74 °F 62 °F (2013)
Min Temperature 62 °F 51 °F 37 °F (2013)
Cooling Degree Days 6    
Growing Degree Days 21 (Base 50)    
Moisture  
Dew Point 59 °F    
Average Humidity 72    
Maximum Humidity 100    
Minimum Humidity 42    
Precipitation  
Precipitation 0.00 in - - ()
Sea Level Pressure  
Sea Level Pressure 29.95 in    
Wind  
Wind Speed 5 mph ()    
Max Wind Speed 12 mph    
Max Gust Speed 22 mph    
Visibility 9.3 miles    
Events      
Averages and records for this station are not official NWS values.
T = Trace of Precipitation, MM = Missing Value Source: Averaged Metar Reports

Daily Weather History Graph

Daily Weather History Graph

Search for Another Location

Airport:

Trip Planner

Search our weather history database for the weather conditions in past years. The results will help you decide how hot, cold, wet, or windy it might be!

Date:

Astronomy

Oct. 26, 2012 Rise Set
Actual Time 7:42 AM EDT 6:43 PM EDT
Civil Twilight 7:17 AM EDT 7:09 PM EDT
Nautical Twilight 6:48 AM EDT 7:37 PM EDT
Astronomical Twilight 6:19 AM EDT 8:06 PM EDT
Moon 4:52 PM EDT (10/26) 4:45 AM EDT (10/26)
Length of Visible Light 11h 51m
Length of Day
11h 01m
Waxing Gibbous, 91% of the Moon is Illuminated
Oct 26
Waxing Gibbous
Oct 29
Full
Nov 6
Last Quarter
Nov 13
New
Nov 20
First Quarter

Hourly Weather History & Observations

Time (EDT) Temp. Heat Index Dew Point Humidity Pressure Visibility Wind Dir Wind Speed Gust Speed Precip Events Conditions
12:15 AM 68.0 °F - 64.4 °F 88% 30.02 in 10.0 mi East 4.6 mph - N/A   Clear
12:35 AM 68.0 °F - 64.4 °F 88% 30.02 in 10.0 mi East 3.5 mph - N/A   Clear
1:35 AM 66.2 °F - 64.4 °F 94% 30.01 in 10.0 mi East 3.5 mph - N/A   Clear
1:55 AM 66.2 °F - 64.4 °F 94% 30.01 in 10.0 mi East 3.5 mph - N/A   Clear
2:15 AM 64.4 °F - 64.4 °F 100% 30.00 in 10.0 mi ENE 3.5 mph - N/A   Clear
2:35 AM 64.4 °F - 64.4 °F 100% 30.00 in 10.0 mi ENE 3.5 mph - N/A   Clear
3:15 AM 62.6 °F - 62.6 °F 100% 29.99 in 10.0 mi NE 4.6 mph - N/A   Clear
3:35 AM 62.6 °F - 62.6 °F 100% 29.98 in 10.0 mi NE 5.8 mph - N/A   Clear
3:55 AM 62.6 °F - 62.6 °F 100% 29.98 in 10.0 mi ENE 4.6 mph - N/A   Clear
4:35 AM 62.6 °F - 62.6 °F 100% 29.98 in 7.0 mi NE 4.6 mph - N/A   Scattered Clouds
4:55 AM 62.6 °F - 62.6 °F 100% 29.98 in 7.0 mi ENE 5.8 mph - N/A   Mostly Cloudy
5:15 AM 62.6 °F - 62.6 °F 100% 29.98 in 5.0 mi NE 4.6 mph - N/A   Overcast
5:35 AM 62.6 °F - 62.6 °F 100% 29.99 in 4.0 mi NE 8.1 mph - N/A   Overcast
5:55 AM 62.6 °F - 62.6 °F 100% 29.99 in 2.5 mi NE 5.8 mph - N/A   Overcast
6:35 AM 62.6 °F - 62.6 °F 100% 29.99 in 7.0 mi ENE 8.1 mph - N/A   Overcast
6:55 AM 62.6 °F - 62.6 °F 100% 29.99 in 5.0 mi ENE 8.1 mph - N/A   Overcast
7:15 AM 62.6 °F - 62.6 °F 100% 29.99 in 5.0 mi NE 5.8 mph - N/A   Overcast
7:35 AM 62.6 °F - 62.6 °F 100% 29.99 in 7.0 mi NE 5.8 mph - N/A   Overcast
7:55 AM 62.6 °F - 62.6 °F 100% 30.00 in 7.0 mi NE 3.5 mph - N/A   Overcast
8:15 AM 62.6 °F - 62.6 °F 100% 30.01 in 7.0 mi NE 4.6 mph - N/A   Overcast
8:35 AM 62.6 °F - 62.6 °F 100% 30.01 in 7.0 mi NE 3.5 mph - N/A   Scattered Clouds
8:55 AM 62.6 °F - 62.6 °F 100% 30.01 in 10.0 mi NE 4.6 mph - N/A   Scattered Clouds
9:15 AM 62.6 °F - 62.6 °F 100% 30.01 in 10.0 mi NE 5.8 mph - N/A   Clear
9:35 AM 64.4 °F - 62.6 °F 94% 30.02 in 10.0 mi NE 5.8 mph - N/A   Clear
9:55 AM 66.2 °F - 62.6 °F 88% 30.02 in 10.0 mi ENE 6.9 mph - N/A   Clear
10:15 AM 68.0 °F - 64.4 °F 88% 30.02 in 10.0 mi NE 5.8 mph - N/A   Clear
10:35 AM 69.8 °F - 64.4 °F 83% 30.01 in 10.0 mi ENE 8.1 mph - N/A   Clear
10:55 AM 69.8 °F - 62.6 °F 78% 30.01 in 10.0 mi NE 5.8 mph - N/A   Clear
11:15 AM 71.6 °F - 62.6 °F 73% 30.01 in 10.0 mi NNE 6.9 mph - N/A   Clear
11:35 AM 71.6 °F - 62.6 °F 73% 30.01 in 10.0 mi NE 8.1 mph 16.1 mph N/A   Clear
11:55 AM 73.4 °F - 62.6 °F 69% 30.00 in 10.0 mi NE 6.9 mph - N/A   Clear
12:15 PM 75.2 °F - 60.8 °F 61% 29.99 in 10.0 mi NE 9.2 mph - N/A   Clear
12:35 PM 77.0 °F - 59.0 °F 54% 29.99 in 10.0 mi ENE 9.2 mph - N/A   Clear
12:55 PM 77.0 °F - 59.0 °F 54% 29.98 in 10.0 mi NE 10.4 mph 16.1 mph N/A   Clear
1:15 PM 77.0 °F - 57.2 °F 50% 29.96 in 10.0 mi NE 11.5 mph 18.4 mph N/A   Clear
1:35 PM 78.8 °F - 59.0 °F 51% 29.95 in 10.0 mi NE 9.2 mph 16.1 mph N/A   Clear
1:55 PM 78.8 °F - 59.0 °F 51% 29.94 in 10.0 mi North 8.1 mph 17.3 mph N/A   Clear
2:15 PM 78.8 °F - 59.0 °F 51% 29.93 in 10.0 mi NE 9.2 mph 16.1 mph N/A   Clear
2:35 PM 78.8 °F - 55.4 °F 44% 29.92 in 10.0 mi NNE 11.5 mph 21.9 mph N/A   Clear
2:55 PM 78.8 °F - 55.4 °F 44% 29.91 in 10.0 mi NE 10.4 mph 20.7 mph N/A   Clear
3:15 PM 78.8 °F - 55.4 °F 44% 29.91 in 10.0 mi NE 8.1 mph 18.4 mph N/A   Clear
3:35 PM 80.6 °F 80.5 °F 55.4 °F 42% 29.91 in 10.0 mi NNE 9.2 mph - N/A   Clear
3:55 PM 78.8 °F - 53.6 °F 42% 29.91 in 10.0 mi ENE 10.4 mph 16.1 mph N/A   Clear
4:15 PM 78.8 °F - 53.6 °F 42% 29.90 in 10.0 mi NNE 8.1 mph - N/A   Clear
4:35 PM 78.8 °F - 53.6 °F 42% 29.90 in 10.0 mi NNE 5.8 mph - N/A   Clear
4:55 PM 78.8 °F - 53.6 °F 42% 29.89 in 10.0 mi NE 9.2 mph - N/A   Clear
5:15 PM 77.0 °F - 53.6 °F 44% 29.88 in 10.0 mi NNE 9.2 mph - N/A   Clear
5:35 PM 77.0 °F - 53.6 °F 44% 29.88 in 10.0 mi NNE 6.9 mph - N/A   Clear
5:55 PM 77.0 °F - 55.4 °F 47% 29.88 in 10.0 mi NNE 4.6 mph - N/A   Clear
6:15 PM 75.2 °F - 55.4 °F 50% 29.88 in 10.0 mi NNE 8.1 mph - N/A   Clear
6:35 PM 73.4 °F - 55.4 °F 53% 29.88 in 10.0 mi North 4.6 mph - N/A   Clear
6:55 PM 73.4 °F - 55.4 °F 53% 29.89 in 10.0 mi NNE 5.8 mph - N/A   Clear
7:15 PM 71.6 °F - 55.4 °F 57% 29.88 in 10.0 mi NNE 4.6 mph - N/A   Clear
7:35 PM 71.6 °F - 55.4 °F 57% 29.88 in 10.0 mi NNE 3.5 mph - N/A   Clear
7:55 PM 71.6 °F - 55.4 °F 57% 29.89 in 10.0 mi North 6.9 mph - N/A   Clear
8:15 PM 71.6 °F - 55.4 °F 57% 29.88 in 10.0 mi NNE 5.8 mph - N/A   Clear
8:35 PM 69.8 °F - 55.4 °F 60% 29.88 in 10.0 mi NNE 4.6 mph - N/A   Clear
8:55 PM 69.8 °F - 55.4 °F 60% 29.88 in 10.0 mi NNE 5.8 mph - N/A   Clear
9:15 PM 69.8 °F - 55.4 °F 60% 29.88 in 10.0 mi NE 5.8 mph - N/A   Clear
9:35 PM 68.0 °F - 55.4 °F 64% 29.88 in 10.0 mi NNE 5.8 mph - N/A   Clear
9:55 PM 68.0 °F - 55.4 °F 64% 29.88 in 10.0 mi NNE 6.9 mph - N/A   Clear
10:15 PM 68.0 °F - 55.4 °F 64% 29.88 in 10.0 mi NNE 6.9 mph - N/A   Clear
10:35 PM 68.0 °F - 55.4 °F 64% 29.88 in 10.0 mi NNE 6.9 mph - N/A   Clear
10:55 PM 68.0 °F - 55.4 °F 64% 29.88 in 10.0 mi NE 8.1 mph - N/A   Clear
11:35 PM 66.2 °F - 55.4 °F 68% 29.87 in 10.0 mi NNE 4.6 mph - N/A   Clear
11:55 PM 64.4 °F - 55.4 °F 73% 29.87 in 10.0 mi North 3.5 mph - N/A   Clear